This is the latest recevied weather packets stored in our database for station/object AA1FF. If no packets are shown the sender has not sent any weather packets the latest 10 day(s).
| Time | Temp. | Humidity | Pressure | Rain* | Wind** | Luminosity | Snow |
|---|---|---|---|---|---|---|---|
| 1777640023 | 9.44° C | 69% | 1011 hPa | 0 mm | - | 294 W/m² | - |
| 1777639723 | 9.44° C | 69% | 1011 hPa | 0 mm | - | 372 W/m² | - |
| 1777639424 | 9.44° C | 69% | 1011 hPa | 0 mm | - | 236 W/m² | - |
| 1777639124 | 9.44° C | 69% | 1011 hPa | 0 mm | - | 212 W/m² | - |
| 1777638824 | 9.44° C | 70% | 1011 hPa | 0 mm | - | 207 W/m² | - |
| 1777638523 | 9.44° C | 72% | 1011 hPa | 0 mm | - | 264 W/m² | - |
| 1777638224 | 9.44° C | 73% | 1011 hPa | 0 mm | - | 255 W/m² | - |
| 1777637923 | 8.89° C | 73% | 1011 hPa | 0 mm | - | 200 W/m² | - |
| 1777637623 | 8.89° C | 75% | 1011 hPa | 0 mm | - | 381 W/m² | - |
| 1777637324 | 8.33° C | 77% | 1011 hPa | 0 mm | - | 221 W/m² | - |
| 1777637024 | 8.33° C | 78% | 1011 hPa | 0 mm | - | 88 W/m² | - |
| 1777636723 | 7.78° C | 78% | 1011 hPa | 0 mm | - | 106 W/m² | - |
| 1777636424 | 7.78° C | 79% | 1011 hPa | 0 mm | - | 112 W/m² | - |
| 1777636123 | 7.78° C | 78% | 1011 hPa | 0 mm | - | 112 W/m² | - |
| 1777635824 | 7.78° C | 80% | 1011 hPa | 0 mm | - | 109 W/m² | - |
| 1777635524 | 7.22° C | 83% | 1011 hPa | 0 mm | - | 60 W/m² | - |
| 1777635223 | 6.67° C | 84% | 1011 hPa | 0 mm | - | 57 W/m² | - |
| 1777634924 | 6.67° C | 86% | 1011 hPa | 0 mm | - | 49 W/m² | - |
| 1777634623 | 6.11° C | 86% | 1011 hPa | 0 mm | - | 48 W/m² | - |
| 1777634324 | 5.56° C | 92% | 1011 hPa | 0 mm | - | 53 W/m² | - |
| 1777634023 | 5° C | 98% | 1011 hPa | 0 mm | - | 48 W/m² | - |
| 1777633724 | 4.44° C | 98% | 1010 hPa | 0 mm | - | 44 W/m² | - |
| 1777633424 | 3.89° C | 99% | 1010 hPa | 0 mm | - | 43 W/m² | - |
| 1777633123 | 3.89° C | 98% | 1010 hPa | 0 mm | - | 40 W/m² | - |
| 1777632823 | 3.33° C | 98% | 1010 hPa | 0 mm | - | 40 W/m² | - |
* Rain latest hour (hover to see other rain measurements)
** Current wind speed in m/s (hover to see current wind gust speed)